Regional Weather Roundup
Issued by NWS

Home | Current Version | Previous Version | Text Only | Print | Product List | Glossary Off
Versions: 1 2 3 4 5 6 7 8 9 10 11 12 13 14 15 16 17 18 19 20 21 22 23 24 25 26 27 28 29 30 31 32 33 34 35 36 37 38 39 40 41 42 43 44 45 46 47 48 49 50

000
ASUS43 KLMK 231902
RWRKY
KENTUCKY REGIONAL WEATHER ROUNDUP
NATIONAL WEATHER SERVICE LOUISVILLE KY
200 PM EST MON JAN 23 2017

NOTE "FAIR" INDICATES FEW OR NO CLOUDS BELOW 12,000 FEET
WITH NO SIGNIFICANT WEATHER AND/OR OBSTRUCTIONS TO VISIBILITY.

KYZ001>023-026-027-061>063-070>075-232000-
WESTERN AND SOUTH CENTRAL KENTUCKY

CITY           SKY/WX    TMP DP  RH WIND       PRES   REMARKS
PADUCAH        CLOUDY    46  36  68 NW9       29.75F
HENDERSON      CLOUDY    45  36  70 NW13G20   29.71F
OWENSBORO      CLOUDY    44  38  79 NW17      29.69F
HOPKINSVILLE   CLOUDY    45  38  75 NW13G23   29.69F
BOWLING GREEN  CLOUDY    46  40  79 NW14G23   29.64F
GLASGOW        NOT AVBL
$$

KYZ024-025-028>034-038-045-046-053-232000-
NORTH CENTRAL KENTUCKY

CITY           SKY/WX    TMP DP  RH WIND       PRES   REMARKS
LOUISVILLE/SDF CLOUDY    49  43  80 NW13G21   29.60R
LOUISVILLE/LOU CLOUDY    49  43  80 NW16G24   29.59S
FORT KNOX      CLOUDY    47  44  89 NW15      29.59R
$$

KYZ035>037-039>044-047>052-055>060-089>105-232000-
NORTHEAST KENTUCKY

CITY           SKY/WX    TMP DP  RH WIND       PRES   REMARKS
LEXINGTON      CLOUDY    48  45  89 NW16G25   29.50F
COVINGTON      LGT RAIN  47  46  97 N16       29.53F FOG
FRANKFORT      CLOUDY    49  45  86 NW14G21   29.52F FOG
$$

KYZ054-064>069-076>088-106>120-232000-
SOUTHEAST KENTUCKY

CITY           SKY/WX    TMP DP  RH WIND       PRES   REMARKS
JACKSON        LGT RAIN  50  47  89 VRB7      29.41S FOG
LONDON         CLOUDY    49  45  86 N10G20    29.45S
SOMERSET       DRIZZLE   48  48 100 N15G24    29.51R
MIDDLESBORO    HVY RAIN  52  50  92 NW17G23   29.41S
MONTICELLO     CLOUDY    50  46  86 N18G29    29.52S
$$




USA.gov is the U.S. government's official web portal to all federal, state and local government web resources and services.